BEIDOU-3 IGSO-3

Last updated on Aug. 12, 2020, 5:32 a.m. UTC

1 44709U 19073A   20224.93197661 -.00000170  00000-0  10000-3 0  9999
2 44709  58.3140 303.3371 0025376 189.3571 270.6928  1.00267452  3042
UTC
Height (km)
Latitude
Longitude
Inclination
Orbital Period
UTC large
Height (km)
Speed (km/s)
/
Latitude / Longitude
Inclination (degrees)
Orbital Period (minutes)
Azimuth
Elevation
Range (km)
Doppler Factor
iOS Compass Heading
iOS Angle

Next 30 passes for location: Hong Kong

Rise time Rise Azimuth (degrees) Set time Set Azimuth (degrees) Duration Max altitude (degrees)

No matching passes for this satellites